Weather Roundup
Issued by NWS Springfield, MO

Home | Current Version | Previous Version | Text Only | Print | Product List | Glossary On
Versions: 1 2 3 4 5 6 7 8 9 10 11 12 13 14 15 16 17 18 19 20 21 22 23 24 25 26 27 28 29 30 31 32 33 34 35 36 37 38 39 40 41 42 43 44 45 46 47 48 49 50
000
NZUS99 KSGF 241207
HRRSGF

HOURLY WEATHER
NATIONAL WEATHER SERVICE SPRINGFIELD MO
700 AM CDT SUN MAY 24 2015

......SGF CWA......

CITY           SKY/WX    TMP DP  RH WIND       PRES   REMARKS
SPRINGFIELD    CLOUDY    65  61  87 SE10      29.97S
6HR MIN TEMP:  64; 6HR MAX TEMP:  68; 6HR PCP:  0.06;

JOPLIN         LGT RAIN  64  63  96 SE9G20    29.91R
6HR MIN TEMP:  64; 6HR MAX TEMP:  67; 6HR PCP:  1.26;

WEST PLAINS    PTSUNNY   66  59  78 SE9       30.06S
6HR MIN TEMP:  64; 6HR MAX TEMP:  66; 6HR PCP: TRACE;

ROLLA          CLOUDY    68  58  70 S13G20    30.01S
6HR MIN TEMP:  62; 6HR MAX TEMP:  68;

OSAGE BEACH    CLOUDY    70  57  64 S8        29.99R
BRANSON        LGT RAIN  64  64 100 SE6       30.00S FOG

......SURROUNDING SGF CWA......

CITY           SKY/WX    TMP DP  RH WIND       PRES   REMARKS
CHANUTE        LGT RAIN  63  62  97 SW5       29.92R
PARSONS        LGT RAIN  63  63 100 S3        29.93S
COFFEYVILLE    LGT RAIN  63  62  97 SE5       29.91S
EMPORIA        CLOUDY    60  59  96 S6        29.91R
GROVE OK       DRIZZLE   64  64 100 SE7       29.91F
ROGERS AR      LGT RAIN  64  63  96 SW3       29.98R
SILOAM SPRINGS CLOUDY    63  57  82 SE5       29.97S
HARRISON AR    CLOUDY    68  66  93 S9        30.00S
NEAR YELLVILLE CLOUDY    72  66  83 SE6       29.99F

......KANSAS AND MISSOURI......

CITY           SKY/WX    TMP DP  RH WIND       PRES   REMARKS
KANSAS CTY INT LGT RAIN  63  63 100 S10       29.88R FOG
DOWNTOWN KC    CLOUDY    66  62  87 S9        29.88R
COLUMBIA       CLOUDY    64  56  75 SE10      30.00S
SEDALIA        LGT RAIN  62  58  86 SE20      29.95F
ST JOSEPH      LGT RAIN  61  60  97 SE6       29.89R FOG
ST LOUIS       PTSUNNY   67  55  65 SE10      30.09R
SPIRIT OF STL  PTSUNNY   66  56  70 E9        30.06S
KIRKSVILLE     LGT RAIN  61  58  90 E12       30.00F
WICHITA        CLOUDY    60  58  92 E5        29.90F
TOPEKA         CLOUDY    64  61  90 SW6       29.89R
OLATHE         LGT RAIN  64  64 100 S12       29.89R FOG

......TENNESSEE......

CITY           SKY/WX    TMP DP  RH WIND       PRES   REMARKS
MEMPHIS        MOSUNNY   72  60  66 SE9       30.13S
NASHVILLE      CLOUDY    66  54  65 SE6       30.26R

......ARKANSAS.......

CITY           SKY/WX    TMP DP  RH WIND       PRES   REMARKS
FAYETTEVILLE   CLOUDY    68  67  96 S6        29.96S
FT SMITH       CLOUDY    71  67  87 E7        29.92S
LITTLE ROCK    CLOUDY    74  67  78 SE7       30.04S

......OKLAHOMA.......

CITY           SKY/WX    TMP DP  RH WIND       PRES   REMARKS
TULSA          LGT RAIN  62  61  96 SE9       29.88S
PONCA CITY     CLOUDY    62  61  96 CALM      29.90S
MCALESTER      HVY RAIN  63  61  93 NW8       29.92R VSB 3/4
OKLAHOMA CITY  CLOUDY    59  58  96 S6        29.84F

......IOWA............

CITY           SKY/WX    TMP DP  RH WIND       PRES   REMARKS
DES MOINES     LGT RAIN  61  58  90 E12       29.96F
QUAD CITIES    RAIN      60  54  80 SE9       30.12R

......ILLINOIS........

CITY           SKY/WX    TMP DP  RH WIND       PRES   REMARKS
QUINCY         CLOUDY    63  55  75 E10       30.06S
CHICAGO        CLOUDY    63  50  62 VRB3      30.18S



USA.gov is the U.S. government's official web portal to all federal, state and local government web resources and services.